User: anonymous   Login
Location: Le Petit-Vavre
(46.5081°N, 1.5239°E)
Time: 19:55:48
(UTC+00:00)
Language:

SL-16 R/B - Orbit

View from above orbital plane
View from above orbital plane
View from above satellite
View from above satellite

Ground track
Ground track

The orbit data is extracted from the following two-line orbital elements,

1 31793U 07029B   21136.51143700 -.00000323  00000-0 -14376-3 0  9999
2 31793  70.9758 266.7197 0002135 261.8116 166.4432 14.14444279716735
Epoch (UTC): 16 May 2021 12:16:28
Eccentricity: 0.0002135
inclination: 70.9758°
perigee height: 842 km
apogee height: 846 km
right ascension of ascending node: 266.7197°
argument of perigee: 261.8116°
revolutions per day: 14.14444279
mean anomaly at epoch: 166.4432°
orbit number at epoch: 71673

The dashed part of the orbit path shows where the satellite is in the earth's shadow,  

DLR